User: anonymous   Login
Location: Home
(42.5358°N, 72.7383°W)
Time: 15:38:15
(UTC-05:00)
Language:

NOAA 18 - Orbit

View from above orbital plane
View from above orbital plane
View from above satellite
View from above satellite

Ground track
Ground track

The orbit data is extracted from the following two-line orbital elements,

1 28654U 05018A   22021.59784203  .00000108  00000-0  82365-4 0  9991
2 28654  98.9684  92.0440 0014546  30.2386 329.9623 14.12679263859245
Epoch (UTC): 21 January 2022 14:20:53
Eccentricity: 0.0014546
inclination: 98.9684°
perigee height: 840 km
apogee height: 861 km
right ascension of ascending node: 92.0440°
argument of perigee: 30.2386°
revolutions per day: 14.12679263
mean anomaly at epoch: 329.9623°
orbit number at epoch: 85924

The dashed part of the orbit path shows where the satellite is in the earth's shadow,  

DLR